Sigfox identifier Datetime Temperature Humidity SNR
003B8455 2019-02-20 13:51:59 20.9 24 24.7
003B8455 2019-02-20 13:19:56 20.9 25 24.6
003B8455 2019-02-20 12:47:53 20.8 25 24
003B8455 2019-02-20 12:15:51 20.8 25 23.3
003B8455 2019-02-20 11:43:51 20.8 26 23.4
003B8455 2019-02-20 11:11:45 20.8 26 22.6
003B8455 2019-02-20 10:39:41 20.8 26 22.6
003B8455 2019-02-20 10:07:39 20.8 26 21.6
003B8455 2019-02-20 09:35:37 20.8 26 21.6
003B8455 2019-02-20 09:03:35 20.8 26 20.3
003B8455 2019-02-20 08:31:33 20.8 26 18.5
003B8455 2019-02-20 07:59:29 20.8 26 18.4
003B8455 2019-02-20 07:27:28 20.8 26 18.4
003B8455 2019-02-20 06:55:25 20.8 26 18.3
003B8455 2019-02-20 06:23:21 20.9 26 18
003B8455 2019-02-20 05:51:16 20.9 26 18
003B8455 2019-02-20 05:19:11 20.9 26 17.7
003B8455 2019-02-20 04:47:06 20.9 26 17.4
003B8455 2019-02-20 04:15:02 20.9 26 17.1
003B8455 2019-02-20 03:43:02 20.9 26 19.5
003B8455 2019-02-20 03:10:53 20.9 26 19.5
003B8455 2019-02-20 02:38:48 20.9 26 20.8
003B8455 2019-02-20 02:06:42 20.9 26 20.8
003B8455 2019-02-20 01:34:38 20.9 26 22
003B8455 2019-02-20 01:02:34 21 26 22
003B8455 2019-02-20 00:30:31 21 26 22
003B8455 2019-02-19 23:58:27 21 26 22
003B8455 2019-02-19 23:26:25 21 26 21.9
003B8455 2019-02-19 22:54:24 21 26 21.8
003B8455 2019-02-19 22:22:24 21 26 21.8
003B8455 2019-02-19 21:50:23 21 26 21.8
003B8455 2019-02-19 21:18:22 21 26 21.8
003B8455 2019-02-19 20:46:22 21 26 21.7
003B8455 2019-02-19 20:14:22 21.1 26 21.8
003B8455 2019-02-19 19:42:21 21.1 26 21.8
003B8455 2019-02-19 19:10:20 21.1 26 21.8
003B8455 2019-02-19 18:38:19 21.1 26 21.7
003B8455 2019-02-19 18:06:17 21.1 26 21.7
003B8455 2019-02-19 17:34:17 21.1 26 21.7
003B8455 2019-02-19 17:02:15 21.1 26 21.8
003B8455 2019-02-19 16:30:16 21.1 26 21.8
003B8455 2019-02-19 15:58:12 21.1 25 21.8
003B8455 2019-02-19 15:26:10 21.1 25 21.9
003B8455 2019-02-19 14:54:10 21.1 25 21.9
003B8455 2019-02-19 13:50:02 21 25 20.6
003B8455 2019-02-19 13:18:04 21 25 20.6
003B8455 2019-02-19 12:46:00 21 25 18.9
003B8455 2019-02-19 11:41:55 21 25 18.9
003B8455 2019-02-19 10:37:11 20.9 24 15.9
003B8455 2019-02-19 10:05:09 20.9 24 18.9
003B8455 2019-02-19 09:33:10 20.9 24 18.9
003B8455 2019-02-19 09:01:07 20.9 24 19.1
003B8455 2019-02-19 08:29:04 20.9 24 19
003B8455 2019-02-19 07:57:03 20.9 24 19
003B8455 2019-02-19 07:25:04 20.9 23 19
003B8455 2019-02-19 06:53:03 20.9 23 19
003B8455 2019-02-19 06:20:59 20.9 23 18.9
003B8455 2019-02-19 05:48:57 20.9 23 18.8
003B8455 2019-02-19 05:16:56 20.9 23 18.5
003B8455 2019-02-19 04:44:55 20.9 23 20.4
003B8455 2019-02-19 04:12:53 20.9 23 20.4
003B8455 2019-02-19 03:40:51 20.9 23 20.3
003B8455 2019-02-19 03:08:51 20.9 23 20.3
003B8455 2019-02-19 02:36:46 20.9 23 20.2
003B8455 2019-02-19 02:04:44 20.9 22 20.2
003B8455 2019-02-19 01:32:42 20.9 22 20.5
003B8455 2019-02-19 01:00:40 20.9 22 20.6
003B8455 2019-02-19 00:28:37 20.9 22 20.6
003B8455 2019-02-18 23:56:33 20.9 22 20.7
003B8455 2019-02-18 23:24:32 20.9 22 20.8
003B8455 2019-02-18 22:52:32 20.9 22 21
003B8455 2019-02-18 21:48:26 20.9 22 21.1
003B8455 2019-02-18 21:16:25 20.9 22 21.1
003B8455 2019-02-18 20:44:19 20.9 21 21.2
003B8455 2019-02-18 20:12:16 20.9 21 19.8
003B8455 2019-02-18 19:40:16 21 21 20.2
003B8455 2019-02-18 19:08:15 21 21 20.5
003B8455 2019-02-18 18:36:12 21 21 21
003B8455 2019-02-18 18:04:10 21 21 21.1
003B8455 2019-02-18 17:32:08 21 21 21.3
003B8455 2019-02-18 17:00:06 21 21 21.6
003B8455 2019-02-18 16:28:05 21.1 21 21.8
003B8455 2019-02-18 15:56:03 21.1 21 22
003B8455 2019-02-18 15:24:00 21.1 20 21
003B8455 2019-02-18 14:52:01 21.1 20 21.3
003B8455 2019-02-18 14:19:57 21.2 20 21.6
003B8455 2019-02-18 13:47:55 21.2 20 21.7
003B8455 2019-02-18 13:15:55 21.2 20 21.9
003B8455 2019-02-18 12:43:53 21.2 20 22.1
003B8455 2019-02-18 12:11:51 21.2 20 22
003B8455 2019-02-18 11:39:49 21.2 20 22.2
003B8455 2019-02-18 11:07:46 21.1 19 22.4
003B8455 2019-02-18 10:35:44 21.1 19 22.3
003B8455 2019-02-18 10:03:41 21.1 19 22.2
003B8455 2019-02-18 09:31:39 21.1 19 22.3
003B8455 2019-02-18 08:59:37 21 19 22.3
003B8455 2019-02-18 08:26:53 21 19 22.5
003B8455 2019-02-18 07:54:51 21 19 22.4
003B8455 2019-02-18 07:22:49 21 19 22.5
003B8455 2019-02-18 06:50:47 21 19 22.3
003B8455 2019-02-18 06:18:45 21 19 22.2
003B8455 2019-02-18 05:46:42 21 19 22.2
003B8455 2019-02-18 05:14:40 21 19 22.1
003B8455 2019-02-18 04:42:36 21 20 22.1
003B8455 2019-02-18 04:10:35 21 20 22.2
003B8455 2019-02-18 03:38:33 21 20 22
003B8455 2019-02-18 03:06:29 21 20 21.9
003B8455 2019-02-18 02:34:27 21 20 21.9
003B8455 2019-02-18 02:02:25 21 20 21.8
003B8455 2019-02-18 01:30:22 21 20 21.8
003B8455 2019-02-18 00:58:19 21 20 21.8
003B8455 2019-02-18 00:26:16 21 20 21.8
003B8455 2019-02-17 23:54:13 21 20 21.7
003B8455 2019-02-17 23:22:10 21.1 20 21.9
003B8455 2019-02-17 22:50:08 21.1 20 21.8
003B8455 2019-02-17 22:18:04 21.1 20 21.7
003B8455 2019-02-17 21:46:00 21.1 21 21.7
003B8455 2019-02-17 21:13:57 21.1 21 21.8
003B8455 2019-02-17 20:41:55 21.1 21 22.1
003B8455 2019-02-17 20:09:52 21.1 21 22.1
003B8455 2019-02-17 19:37:51 21.1 21 22.3
003B8455 2019-02-17 19:05:48 21.1 21 22.2
003B8455 2019-02-17 18:33:46 21.1 21 22.4
003B8455 2019-02-17 18:01:42 21.1 21 22.5
003B8455 2019-02-17 17:29:38 21.1 21 22.6
003B8455 2019-02-17 16:57:36 21.1 21 22.6
003B8455 2019-02-17 16:25:34 21.1 21 22.7
003B8455 2019-02-17 15:53:30 21.1 21 22.7
003B8455 2019-02-17 15:21:27 21.1 22 22.6
003B8455 2019-02-17 14:49:24 21.1 22 22.5
003B8455 2019-02-17 14:17:21 21.2 22 22.5
003B8455 2019-02-17 13:45:20 21.1 22 22.6
003B8455 2019-02-17 13:13:16 21.1 22 22.6
003B8455 2019-02-17 12:41:15 21.1 22 22.7
003B8455 2019-02-17 12:09:13 21.1 22 22.7
003B8455 2019-02-17 11:37:11 21.1 22 22.6
003B8455 2019-02-17 11:05:09 21.1 22 22.6
003B8455 2019-02-17 10:33:06 21.1 22 22.7
003B8455 2019-02-17 10:01:04 21.1 22 22.6
003B8455 2019-02-17 09:29:02 21.1 23 22.5
003B8455 2019-02-17 08:56:59 21.2 23 22.5
003B8455 2019-02-17 08:24:57 21.1 23 22.5
003B8455 2019-02-17 07:52:53 21.1 23 22.5
003B8455 2019-02-17 07:20:50 21.2 23 22.5
003B8455 2019-02-17 06:48:47 21.1 23 22.5
003B8455 2019-02-17 06:16:44 21.1 23 22.2
003B8455 2019-02-17 05:43:59 21.2 23 22.3
003B8455 2019-02-17 05:11:57 21.2 23 22.2
003B8455 2019-02-17 04:39:54 21.2 24 22.1
003B8455 2019-02-17 04:07:52 21.2 24 22.1
003B8455 2019-02-17 03:35:50 21.2 24 22
003B8455 2019-02-17 03:03:46 21.2 24 22
003B8455 2019-02-17 02:31:47 21.2 24 22.1
003B8455 2019-02-17 01:59:42 21.2 24 22.2
003B8455 2019-02-17 01:27:41 21.2 24 22.2
003B8455 2019-02-17 00:55:38 21.2 24 22.2
003B8455 2019-02-17 00:23:37 21.2 24 22.2
003B8455 2019-02-16 23:51:36 21.2 24 22.2
003B8455 2019-02-16 23:19:34 21.2 24 22.2
003B8455 2019-02-16 22:15:26 21.2 25 22.1
003B8455 2019-02-16 21:43:23 21.2 25 22.9
003B8455 2019-02-16 21:11:21 21.2 25 22.9
003B8455 2019-02-16 20:39:17 21.3 25 22.9
003B8455 2019-02-16 20:07:12 21.2 25 22.9
003B8455 2019-02-16 19:35:09 21.3 25 23
003B8455 2019-02-16 19:03:06 21.3 25 23
003B8455 2019-02-16 18:31:03 21.3 25 22.9
003B8455 2019-02-16 17:59:01 21.3 25 22.8
003B8455 2019-02-16 17:26:58 21.4 25 22.7
003B8455 2019-02-16 16:54:54 21.3 25 22.8
003B8455 2019-02-16 16:22:52 21.3 25 22.7
003B8455 2019-02-16 15:50:49 21.3 25 22.7
003B8455 2019-02-16 15:18:44 21.3 25 22.6
003B8455 2019-02-16 14:46:40 21.3 25 22.6
003B8455 2019-02-16 14:14:37 21.3 25 22.6
003B8455 2019-02-16 13:42:35 21.3 25 22.6
003B8455 2019-02-16 13:10:32 21.2 25 22.7
003B8455 2019-02-16 12:38:30 21.2 25 22.6
003B8455 2019-02-16 12:06:28 21.2 25 22.5
003B8455 2019-02-16 11:34:26 21.2 25 22.5
003B8455 2019-02-16 11:02:25 21.2 25 22.5
003B8455 2019-02-16 10:30:24 21.2 25 22.5
003B8455 2019-02-16 09:58:21 21.2 25 22.5
003B8455 2019-02-16 09:26:20 21.2 25 22.5
003B8455 2019-02-16 08:54:18 21.2 25 22.4
003B8455 2019-02-16 08:22:16 21.2 25 21.4
003B8455 2019-02-16 07:50:14 21.2 25 21.3
003B8455 2019-02-16 07:18:12 21.3 25 21.5
003B8455 2019-02-16 06:46:09 21.3 25 21.5
003B8455 2019-02-16 06:14:06 21.3 25 21.3
003B8455 2019-02-16 05:42:03 21.3 25 21.2
003B8455 2019-02-16 05:10:01 21.3 25 21.2
003B8455 2019-02-16 04:37:57 21.3 25 21.2
003B8455 2019-02-16 04:05:53 21.3 25 21.3
003B8455 2019-02-16 03:33:49 21.3 25 21.4
003B8455 2019-02-16 03:01:04 21.3 25 21.4
003B8455 2019-02-16 02:29:00 21.3 25 21.3
003B8455 2019-02-16 01:56:57 21.4 25 22.4
003B8455 2019-02-16 01:24:54 21.4 25 22.4
003B8455 2019-02-16 00:52:51 21.4 25 22.4
003B8455 2019-02-16 00:20:48 21.5 25 22.3
003B8455 2019-02-15 23:48:45 21.5 25 22.2
003B8455 2019-02-15 23:16:43 21.5 25 22.1
003B8455 2019-02-15 22:44:41 21.5 25 22.3
003B8455 2019-02-15 22:12:38 21.6 25 23
003B8455 2019-02-15 21:40:34 21.6 25 23.1
003B8455 2019-02-15 21:08:31 21.6 25 23.1
003B8455 2019-02-15 20:36:29 21.6 25 23.1
003B8455 2019-02-15 20:04:27 21.7 25 23
003B8455 2019-02-15 19:32:23 21.7 25 23.1
003B8455 2019-02-15 19:00:20 21.7 25 23.1
003B8455 2019-02-15 18:28:18 21.7 24 23.1
003B8455 2019-02-15 17:56:15 21.7 24 23.1
003B8455 2019-02-15 17:24:11 21.7 24 23.8
003B8455 2019-02-15 16:52:07 21.6 24 23.8
003B8455 2019-02-15 16:20:02 21.6 24 23.8
003B8455 2019-02-15 15:47:57 21.6 24 23.8
003B8455 2019-02-15 15:15:52 21.6 24 23.7
003B8455 2019-02-15 14:43:47 21.6 24 23.8
003B8455 2019-02-15 14:11:43 21.6 24 23.8
003B8455 2019-02-15 13:39:37 21.5 24 23.7
003B8455 2019-02-15 13:07:30 21.5 24 23.8
003B8455 2019-02-15 12:35:26 21.5 24 23.1
003B8455 2019-02-15 12:03:23 21.5 24 23
003B8455 2019-02-15 11:31:19 21.5 24 22.9
003B8455 2019-02-15 10:59:15 21.4 25 22.9
003B8455 2019-02-15 10:27:10 21.4 25 23
003B8455 2019-02-15 09:55:05 21.4 25 23.1
003B8455 2019-02-15 09:23:01 21.4 25 23.1
003B8455 2019-02-15 08:50:59 21.4 25 22.3
003B8455 2019-02-15 08:18:55 21.4 25 22.3
003B8455 2019-02-15 07:46:51 21.4 25 22.2
003B8455 2019-02-15 07:14:48 21.4 25 22.3
003B8455 2019-02-15 06:42:46 21.4 25 22.4
003B8455 2019-02-15 06:10:43 21.4 25 23.1
003B8455 2019-02-15 05:38:40 21.4 25 23.1
003B8455 2019-02-15 05:06:38 21.4 25 23.3
003B8455 2019-02-15 04:34:36 21.4 25 23.3
003B8455 2019-02-15 04:02:34 21.4 25 22.6
003B8455 2019-02-15 03:30:31 21.4 25 22.9
003B8455 2019-02-15 02:58:29 21.5 25 22.8
003B8455 2019-02-15 02:26:26 21.4 25 22.7
003B8455 2019-02-15 01:54:25 21.5 25 22.9
003B8455 2019-02-15 01:22:23 21.5 24 22.7
003B8455 2019-02-15 00:50:19 21.5 24 22.6
003B8455 2019-02-15 00:17:34 21.5 24 22.8
003B8455 2019-02-14 23:45:34 21.5 24 22.7
003B8455 2019-02-14 23:13:29 21.6 24 22.8
003B8455 2019-02-14 22:41:25 21.6 24 22.7
003B8455 2019-02-14 22:09:22 21.6 24 22.9
003B8455 2019-02-14 21:37:16 21.7 24 23
003B8455 2019-02-14 21:05:12 21.7 24 23
003B8455 2019-02-14 20:33:07 21.7 24 23.1
003B8455 2019-02-14 20:01:06 21.8 24 23.2
003B8455 2019-02-14 19:29:02 21.8 24 23.3
003B8455 2019-02-14 18:56:59 21.8 24 23.4
003B8455 2019-02-14 18:24:58 21.8 24 23.5
003B8455 2019-02-14 17:52:58 21.8 24 23.5
003B8455 2019-02-14 17:20:54 21.9 24 23.5
003B8455 2019-02-14 16:48:52 21.9 24 23
003B8455 2019-02-14 16:16:52 21.9 25 23.2
003B8455 2019-02-14 15:44:47 21.8 24 23
003B8455 2019-02-14 15:12:45 21.8 23 22.9
003B8455 2019-02-14 14:40:44 21.7 24 23.1
003B8455 2019-02-14 14:08:43 21.7 23 23
003B8455 2019-02-14 13:36:41 21.6 23 23.2
003B8455 2019-02-14 13:04:39 21.5 23 23.4
003B8455 2019-02-14 12:32:36 21.5 22 23.5
003B8455 2019-02-14 12:00:35 21.3 22 23.6
003B8455 2019-02-14 11:28:34 21.2 23 23.8
003B8455 2019-02-14 10:56:31 21.1 23 23.8
003B8455 2019-02-14 10:24:28 21 24 24
003B8455 2019-02-14 09:52:26 21 23 23.9
003B8455 2019-02-14 09:20:24 20.9 23 23.9
003B8455 2019-02-14 08:48:22 20.9 23 24
003B8455 2019-02-14 08:16:20 20.9 23 24
003B8455 2019-02-14 07:44:17 20.9 24 23.8
003B8455 2019-02-14 07:12:15 20.9 25 23.9
003B8455 2019-02-14 06:40:13 20.9 25 23.9
003B8455 2019-02-14 06:08:12 20.9 25 23.7
003B8455 2019-02-14 05:36:10 21 25 23.7
003B8455 2019-02-14 05:04:09 20.9 25 23.6
003B8455 2019-02-14 04:32:07 21 25 23.5
003B8455 2019-02-14 04:00:03 20.9 25 23.4
003B8455 2019-02-14 03:28:02 21 25 23.2
003B8455 2019-02-14 02:56:01 21 25 23.1
003B8455 2019-02-14 02:23:59 21 25 23
003B8455 2019-02-14 01:51:57 21 25 23
003B8455 2019-02-14 01:19:54 21 25 22.8
003B8455 2019-02-14 00:47:52 21 24 22.6
003B8455 2019-02-14 00:15:51 21 24 22.5
003B8455 2019-02-13 23:43:48 21 24 22.5
003B8455 2019-02-13 23:11:46 21.1 24 22.4
003B8455 2019-02-13 22:39:44 21.2 24 22.5
003B8455 2019-02-13 22:07:42 21.2 24 22.3
003B8455 2019-02-13 21:34:57 21.3 24 22.1
003B8455 2019-02-13 21:02:55 21.3 24 22
003B8455 2019-02-13 20:30:54 21.4 25 22
003B8455 2019-02-13 19:58:51 21.5 25 22.2
003B8455 2019-02-13 19:26:47 21.5 25 22.1
003B8455 2019-02-13 18:54:45 21.6 25 22.2
003B8455 2019-02-13 18:22:42 21.7 25 22.3
003B8455 2019-02-13 17:50:40 21.7 26 22.1
003B8455 2019-02-13 17:18:37 21.6 26 22.3
003B8455 2019-02-13 16:46:34 21.5 27 22.4
003B8455 2019-02-13 16:14:31 21.4 26 22.5
003B8455 2019-02-13 15:42:28 21.3 25 22.7
003B8455 2019-02-13 15:10:26 21.2 25 22.8
003B8455 2019-02-13 14:38:24 21.1 25 22.9
003B8455 2019-02-13 14:06:22 21.2 24 23.2
003B8455 2019-02-13 13:34:20 21.3 24 23.3
003B8455 2019-02-13 13:02:17 21.3 24 23.4
003B8455 2019-02-13 12:30:13 21.2 24 23.5
003B8455 2019-02-13 11:58:10 21.2 25 23.6
003B8455 2019-02-13 11:26:06 21.1 25 23.7
003B8455 2019-02-13 10:54:02 21 25 23.7
003B8455 2019-02-13 10:21:59 20.9 24 23.6
003B8455 2019-02-13 09:49:56 20.9 23 23.8
003B8455 2019-02-13 09:17:53 20.9 22 23.8
003B8455 2019-02-13 08:45:51 20.9 21 23.9
003B8455 2019-02-13 08:13:48 20.9 21 24
003B8455 2019-02-13 07:41:45 20.9 20 24
003B8455 2019-02-13 07:09:42 20.9 19 24.1
003B8455 2019-02-13 06:37:39 20.9 19 24.1
003B8455 2019-02-13 06:05:36 20.9 19 24.1
003B8455 2019-02-13 05:33:32 20.9 19 24.1
003B8455 2019-02-13 05:01:29 20.9 19 24.1
003B8455 2019-02-13 04:29:27 20.9 19 24
003B8455 2019-02-13 03:57:24 20.9 19 23.9
003B8455 2019-02-13 03:25:25 21 19 23.8
003B8455 2019-02-13 02:53:18 21 18 23.6
003B8455 2019-02-13 02:21:15 21 18 23.5
003B8455 2019-02-13 01:49:13 21 18 23.6
003B8455 2019-02-13 01:17:09 21 17 23.6
003B8455 2019-02-13 00:45:05 21 17 23.4
003B8455 2019-02-13 00:13:02 21.1 18 23.3
003B8455 2019-02-12 23:40:59 21.1 19 23.2
003B8455 2019-02-12 23:08:55 21.1 19 23.1
003B8455 2019-02-12 22:36:52 21.2 18 22.9
003B8455 2019-02-12 22:04:49 21.2 18 22.8
003B8455 2019-02-12 21:32:46 21.3 19 22.8
003B8455 2019-02-12 21:00:44 21.3 21 22.9
003B8455 2019-02-12 20:28:42 21.3 20 22.6
003B8455 2019-02-12 19:56:40 21.4 20 22.6
003B8455 2019-02-12 19:24:38 21.3 20 22.5
003B8455 2019-02-12 18:51:53 21.3 19 22.4
003B8455 2019-02-12 18:19:49 21.3 18 22.5
003B8455 2019-02-12 17:47:48 21.4 18 22.2
003B8455 2019-02-12 17:15:45 21.4 18 22.3
003B8455 2019-02-12 16:43:43 21.5 18 22.3
003B8455 2019-02-12 16:11:39 21.5 18 22.1
003B8455 2019-02-12 15:39:36 21.5 18 22.1
003B8455 2019-02-12 15:07:33 21.4 18 22.3
003B8455 2019-02-12 14:35:28 21.4 18 22.4
003B8455 2019-02-12 14:03:24 21.3 18 22.4
003B8455 2019-02-12 13:31:20 21.4 18 22.5
003B8455 2019-02-12 12:59:17 21.4 18 22.5
003B8455 2019-02-12 12:27:15 21.4 18 22.4
003B8455 2019-02-12 11:55:10 21.4 18 22.4
003B8455 2019-02-12 11:23:07 21.3 18 22.3
003B8455 2019-02-12 10:51:04 21.3 19 22.3
003B8455 2019-02-12 10:19:01 21.2 20 22.2
003B8455 2019-02-12 09:46:58 21.1 20 22.1
003B8455 2019-02-12 09:14:54 21 22 22.4
003B8455 2019-02-12 08:42:50 20.9 23 22.4
003B8455 2019-02-12 08:10:47 20.9 21 22.4
003B8455 2019-02-12 07:38:43 20.9 23 22.1
003B8455 2019-02-12 07:06:39 20.9 26 22.2
003B8455 2019-02-12 06:34:37 20.9 26 22
003B8455 2019-02-12 06:02:35 21 26 21.9
003B8455 2019-02-12 05:30:33 21 26 21.9
003B8455 2019-02-12 04:58:30 21 26 21.8
003B8455 2019-02-12 04:26:26 21 26 21.8
003B8455 2019-02-12 03:54:22 21 26 21.7
003B8455 2019-02-12 03:22:20 21 26 21.7
003B8455 2019-02-12 02:50:15 21 26 21.8
003B8455 2019-02-12 02:18:12 21 27 21.6
003B8455 2019-02-12 01:46:08 21 27 21.6
003B8455 2019-02-12 01:14:04 21 27 21.4
003B8455 2019-02-12 00:41:59 21.1 27 21.5
003B8455 2019-02-12 00:09:52 21.1 27 21.2
003B8455 2019-02-11 23:37:46 21.2 27 21
003B8455 2019-02-11 23:05:40 21.3 27 21
003B8455 2019-02-11 22:33:35 21.3 27 20.8
003B8455 2019-02-11 22:01:29 21.4 27 21
003B8455 2019-02-11 21:29:23 21.5 27 21.3
003B8455 2019-02-11 20:57:17 21.5 27 21.1
003B8455 2019-02-11 20:25:12 21.6 27 21.3
003B8455 2019-02-11 19:53:06 21.8 27 20.3
003B8455 2019-02-11 19:21:00 21.9 27 20.5
003B8455 2019-02-11 18:48:55 22 26 19.7
003B8455 2019-02-11 18:16:48 22.2 26 19.8
003B8455 2019-02-11 17:44:43 22.3 27 16.7
003B8455 2019-02-11 17:12:38 22.3 27 15.9
003B8455 2019-02-11 16:40:30 22.4 30 0